• In Österreich
  • Länderverzeichnis
  • Für 7 Tage
  • Wassertemperatur
  • Satellitenkarten
  • Wetterkarte
  • News
  • Widgets
  • user-avatar
    Anmelden

    Stündliche Wetter Pernik

    Heute, 21 Mai, Montag

    Zeit Temperatur Niederschläge Wind Luftdruck Luftfeuchtigkeit
    00:00 +12°C° 0 mm 1 m/S 692 mmHg 89%
    01:00 +12°C° 0 mm 1 m/S 692 mmHg 90%
    02:00 +12°C° 0 mm 1 m/S 692 mmHg 91%
    03:00 +12°C° 0 mm 1 m/S 692 mmHg 91%
    04:00 +11°C° 0 mm 1 m/S 692 mmHg 92%
    05:00 +11°C° 0 mm 1 m/S 692 mmHg 92%
    06:00 +13°C° 0 mm 1 m/S 692 mmHg 86%
    07:00 +15°C° 0 mm 1 m/S 692 mmHg 80%
    08:00 +16°C° 0 mm 1 m/S 693 mmHg 74%
    09:00 +18°C° 0,1 mm 2 m/S 693 mmHg 69%
    10:00 +19°C° 0,1 mm 2 m/S 693 mmHg 64%
    11:00 +20°C° 0,1 mm 2 m/S 693 mmHg 59%
    12:00 +21°C° 0,6 mm 2 m/S 693 mmHg 59%
    13:00 +21°C° 0,6 mm 3 m/S 693 mmHg 60%
    14:00 +21°C° 0,6 mm 3 m/S 692 mmHg 60%
    15:00 +21°C° 0,7 mm 3 m/S 692 mmHg 62%
    16:00 +20°C° 0,7 mm 3 m/S 692 mmHg 65%
    17:00 +20°C° 0,7 mm 2 m/S 691 mmHg 67%
    18:00 +19°C° 0,3 mm 2 m/S 691 mmHg 72%
    19:00 +17°C° 0,3 mm 2 m/S 691 mmHg 77%
    20:00 +15°C° 0,3 mm 2 m/S 691 mmHg 83%
    21:00 +15°C° 0 mm 2 m/S 691 mmHg 85%
    22:00 +14°C° 0 mm 2 m/S 691 mmHg 88%
    23:00 +14°C° 0 mm 2 m/S 691 mmHg 90%

    Morgen, 22 Mai, Dienstag

    Zeit Temperatur Niederschläge Wind Luftdruck Luftfeuchtigkeit
    00:00 +13°C° 0 mm 2 m/S 691 mmHg 91%
    01:00 +13°C° 0 mm 2 m/S 691 mmHg 92%
    02:00 +13°C° 0 mm 2 m/S 691 mmHg 93%
    03:00 +13°C° 0 mm 1 m/S 691 mmHg 94%
    04:00 +12°C° 0 mm 1 m/S 691 mmHg 94%
    05:00 +12°C° 0 mm 1 m/S 691 mmHg 94%
    06:00 +14°C° 0 mm 1 m/S 692 mmHg 88%
    07:00 +15°C° 0 mm 1 m/S 692 mmHg 83%
    08:00 +18°C° 0 mm 1 m/S 693 mmHg 77%
    09:00 +19°C° 0 mm 2 m/S 693 mmHg 69%
    10:00 +20°C° 0 mm 2 m/S 694 mmHg 62%
    11:00 +23°C° 0 mm 2 m/S 694 mmHg 55%
    12:00 +23°C° 0,6 mm 2 m/S 694 mmHg 55%
    13:00 +24°C° 0,6 mm 2 m/S 694 mmHg 55%
    14:00 +24°C° 0,6 mm 2 m/S 694 mmHg 55%
    15:00 +24°C° 1 mm 2 m/S 693 mmHg 57%
    16:00 +24°C° 1 mm 2 m/S 693 mmHg 59%
    17:00 +23°C° 1 mm 1 m/S 693 mmHg 61%
    18:00 +21°C° 0,6 mm 1 m/S 693 mmHg 67%
    19:00 +20°C° 0,6 mm 1 m/S 693 mmHg 74%
    20:00 +18°C° 0,6 mm 1 m/S 693 mmHg 80%
    21:00 +16°C° 0,2 mm 1 m/S 693 mmHg 82%
    22:00 +16°C° 0,2 mm 1 m/S 693 mmHg 85%
    23:00 +15°C° 0,2 mm 1 m/S 693 mmHg 87%

    übermorgen, 23 Mai, Mittwoch

    Zeit Temperatur Niederschläge Wind Luftdruck Luftfeuchtigkeit
    00:00 +15°C° 0,3 mm 1 m/S 693 mmHg 88%
    01:00 +14°C° 0,3 mm 1 m/S 693 mmHg 89%
    02:00 +14°C° 0,3 mm 1 m/S 693 mmHg 90%
    03:00 +13°C° 0,1 mm 1 m/S 693 mmHg 91%
    04:00 +13°C° 0,1 mm 1 m/S 693 mmHg 91%
    05:00 +13°C° 0,1 mm 1 m/S 693 mmHg 92%
    06:00 +15°C° 0 mm 1 m/S 693 mmHg 86%
    07:00 +16°C° 0 mm 1 m/S 694 mmHg 80%
    08:00 +19°C° 0 mm 1 m/S 694 mmHg 74%
    09:00 +21°C° 0 mm 1 m/S 694 mmHg 68%
    10:00 +22°C° 0 mm 1 m/S 695 mmHg 61%
    11:00 +24°C° 0 mm 1 m/S 695 mmHg 54%
    12:00 +24°C° 0,6 mm 2 m/S 694 mmHg 56%
    13:00 +24°C° 0,6 mm 2 m/S 694 mmHg 58%
    14:00 +24°C° 0,6 mm 2 m/S 694 mmHg 59%
    15:00 +23°C° 1,5 mm 2 m/S 693 mmHg 64%
    16:00 +21°C° 1,5 mm 2 m/S 693 mmHg 69%
    17:00 +20°C° 1,5 mm 2 m/S 693 mmHg 74%
    18:00 +19°C° 0,2 mm 2 m/S 692 mmHg 78%
    19:00 +19°C° 0,2 mm 1 m/S 692 mmHg 82%
    20:00 +16°C° 0,2 mm 1 m/S 692 mmHg 86%
    21:00 +16°C° 0,2 mm 1 m/S 692 mmHg 88%
    22:00 +15°C° 0,2 mm 1 m/S 692 mmHg 89%
    23:00 +14°C° 0,2 mm 1 m/S 691 mmHg 90%

    24 Mai, Donnerstag

    Zeit Temperatur Niederschläge Wind Luftdruck Luftfeuchtigkeit
    00:00 +14°C° 0,2 mm 1 m/S 691 mmHg 91%
    01:00 +14°C° 0,2 mm 1 m/S 691 mmHg 91%
    02:00 +13°C° 0,2 mm 1 m/S 691 mmHg 91%
    03:00 +13°C° 0 mm 1 m/S 691 mmHg 91%
    04:00 +13°C° 0 mm 1 m/S 691 mmHg 91%
    05:00 +13°C° 0 mm 1 m/S 690 mmHg 90%
    06:00 +14°C° 0 mm 1 m/S 691 mmHg 85%
    07:00 +16°C° 0 mm 1 m/S 691 mmHg 80%
    08:00 +18°C° 0 mm 1 m/S 692 mmHg 75%
    09:00 +20°C° 0 mm 1 m/S 692 mmHg 68%
    10:00 +20°C° 0 mm 2 m/S 692 mmHg 61%
    11:00 +23°C° 0 mm 2 m/S 692 mmHg 54%
    12:00 +22°C° 0,1 mm 3 m/S 692 mmHg 52%
    13:00 +22°C° 0,1 mm 3 m/S 692 mmHg 50%
    14:00 +24°C° 0,1 mm 3 m/S 691 mmHg 48%
    15:00 +22°C° 0,1 mm 3 m/S 691 mmHg 49%
    16:00 +22°C° 0,1 mm 3 m/S 691 mmHg 50%
    17:00 +22°C° 0,1 mm 3 m/S 690 mmHg 51%
    18:00 +20°C° 0 mm 3 m/S 690 mmHg 58%
    19:00 +18°C° 0 mm 2 m/S 690 mmHg 66%
    20:00 +15°C° 0 mm 2 m/S 690 mmHg 73%
    21:00 +15°C° 0 mm 1 m/S 690 mmHg 75%
    22:00 +14°C° 0 mm 1 m/S 690 mmHg 78%
    23:00 +13°C° 0 mm 1 m/S 690 mmHg 80%

    25 Mai, Freitag

    Zeit Temperatur Niederschläge Wind Luftdruck Luftfeuchtigkeit
    00:00 +13°C° 0 mm 1 m/S 690 mmHg 81%
    01:00 +12°C° 0 mm 1 m/S 690 mmHg 82%
    02:00 +12°C° 0 mm 1 m/S 690 mmHg 83%
    03:00 +12°C° 0 mm 1 m/S 690 mmHg 84%
    04:00 +12°C° 0 mm 1 m/S 690 mmHg 85%
    05:00 +12°C° 0 mm 1 m/S 690 mmHg 86%
    06:00 +14°C° 0 mm 1 m/S 690 mmHg 79%
    07:00 +16°C° 0 mm 1 m/S 691 mmHg 73%
    08:00 +20°C° 0 mm 1 m/S 691 mmHg 66%
    09:00 +20°C° 0 mm 2 m/S 692 mmHg 60%
    10:00 +21°C° 0 mm 2 m/S 692 mmHg 54%
    11:00 +24°C° 0 mm 3 m/S 692 mmHg 49%
    12:00 +24°C° 0 mm 3 m/S 692 mmHg 47%
    13:00 +25°C° 0 mm 3 m/S 691 mmHg 46%
    14:00 +25°C° 0 mm 4 m/S 691 mmHg 45%
    15:00 +25°C° 0,1 mm 4 m/S 691 mmHg 47%
    16:00 +23°C° 0,1 mm 4 m/S 691 mmHg 50%
    17:00 +23°C° 0,1 mm 4 m/S 691 mmHg 52%
    18:00 +21°C° 0 mm 3 m/S 691 mmHg 62%
    19:00 +19°C° 0 mm 2 m/S 690 mmHg 71%
    20:00 +16°C° 0 mm 2 m/S 690 mmHg 81%
    21:00 +16°C° 0 mm 1 m/S 690 mmHg 84%
    22:00 +15°C° 0 mm 1 m/S 690 mmHg 86%
    23:00 +14°C° 0 mm 1 m/S 690 mmHg 89%

    26 Mai, Samstag

    Zeit Temperatur Niederschläge Wind Luftdruck Luftfeuchtigkeit
    00:00 +14°C° 0 mm 1 m/S 690 mmHg 88%
    01:00 +13°C° 0 mm 1 m/S 690 mmHg 88%
    02:00 +13°C° 0 mm 1 m/S 690 mmHg 87%
    03:00 +13°C° 0 mm 1 m/S 690 mmHg 87%
    04:00 +13°C° 0 mm 1 m/S 690 mmHg 87%
    05:00 +13°C° 0 mm 1 m/S 690 mmHg 88%
    06:00 +15°C° 0 mm 1 m/S 691 mmHg 81%
    07:00 +18°C° 0 mm 1 m/S 692 mmHg 74%
    08:00 +20°C° 0 mm 1 m/S 692 mmHg 68%
    09:00 +21°C° 0,2 mm 2 m/S 692 mmHg 64%
    10:00 +23°C° 0,2 mm 2 m/S 693 mmHg 60%
    11:00 +24°C° 0,2 mm 3 m/S 693 mmHg 56%
    12:00 +25°C° 0,3 mm 3 m/S 693 mmHg 54%
    13:00 +25°C° 0,3 mm 3 m/S 692 mmHg 53%
    14:00 +26°C° 0,3 mm 3 m/S 692 mmHg 51%
    15:00 +25°C° 0,1 mm 3 m/S 692 mmHg 53%
    16:00 +25°C° 0,1 mm 3 m/S 692 mmHg 54%
    17:00 +24°C° 0,1 mm 3 m/S 692 mmHg 56%
    18:00 +21°C° 0,1 mm 3 m/S 692 mmHg 65%
    19:00 +19°C° 0,1 mm 2 m/S 691 mmHg 74%
    20:00 +17°C° 0,1 mm 2 m/S 691 mmHg 84%
    21:00 +16°C° 0,1 mm 2 m/S 691 mmHg 86%
    22:00 +16°C° 0,1 mm 1 m/S 692 mmHg 89%
    23:00 +15°C° 0,1 mm 1 m/S 692 mmHg 92%
    Mehr zeigen